Flag for Brazil Weather past 2 weeks in São Paulo, São Paulo, Brazil

Now
66 °F

Overcast.


Feels Like: 66 °F
Forecast: 61 / 79 °F
Wind: 7 mph from East

Location: Sao Paulo Airport

Current Time: Sep 18, 2014 at 9:22:43 AM

Latest Report: Sep 18, 2014 at 9:00 AM


Visibility: N/A

Pressure: 30.18 "Hg

Humidity: 73%

Dew point: 57 °F

Location of São PauloLocation

Historic Weather in São Paulo — Graph

°F

São Paulo temperature yesterday

Maximum temperature yesterday: 68 °F (at 1:00 PM)
Minimum temperature yesterday: 59 °F (at 2:00 AM)
Average temperature yesterday: 62 °F

Past Weeks' High & Low Weather Summary

 TemperatureHumidityPressure
High90 °F (Sep 11, 1:00 PM)88% (Sep 4, 1:00 AM)30.39 "Hg (Sep 4, 1:00 AM)
Low54 °F (Sep 6, 7:00 AM)15% (Sep 9, 2:00 PM)29.98 "Hg (Sep 10, 4:00 PM)
Average68 °F59%30.15 "Hg
* Reported Sep 3 8:00 AM — Sep 18 8:00 AM, São Paulo, Weather by CustomWeather, © 2014

Note: Actual official high and low records may vary slightly from our data, if they occured in-between our weather recording intervals... More about our weather records

Advertising

São Paulo weather history for previous 24 hours

 ConditionsComfort  
Time TempWeatherWind HumidityBarometerVisibility
8:00 AM
Sep 18
64 °FPartly sunny.7 mph78%30.15 "HgN/A
7:00 AM63 °FPartly sunny.8 mph77%30.12 "HgN/A
6:00 AM63 °FPartly sunny.6 mph77%30.12 "Hg5 mi
5:00 AM61 °FPassing clouds.3 mph83%30.12 "HgN/A
4:00 AM61 °FPassing clouds.6 mph83%30.12 "HgN/A
3:00 AM61 °FPassing clouds.6 mph83%30.12 "HgN/A
2:00 AM63 °FOvercast.5 mph77%30.12 "HgN/A
1:00 AM61 °FMostly cloudy.6 mph83%30.15 "HgN/A
12:00 AM61 °FPassing clouds.6 mph83%30.18 "HgN/A
11:00 PM
Sep 17
61 °FMostly cloudy.8 mph83%30.18 "HgN/A
10:00 PM61 °FMostly cloudy.12 mph83%30.21 "Hg4 mi
9:00 PM61 °FFog.8 mph83%30.21 "Hg3 mi
8:00 PM61 °FMostly cloudy.10 mph77%30.18 "Hg4 mi
7:00 PM59 °FFog.12 mph82%30.18 "Hg3 mi
6:00 PM61 °FMostly cloudy.12 mph77%30.18 "Hg3 mi
5:00 PM63 °FPassing clouds.14 mph68%30.15 "HgN/A
4:00 PM63 °FPartly sunny.14 mph68%30.15 "HgN/A
3:00 PM64 °FPartly sunny.15 mph68%30.15 "HgN/A
2:00 PM68 °FBroken clouds.14 mph64%30.15 "HgN/A
1:00 PM68 °FBroken clouds.13 mph64%30.15 "HgN/A
12:00 PM66 °FBroken clouds.12 mph68%30.18 "HgN/A
11:00 AM66 °FPartly sunny.9 mph64%30.21 "HgN/A
10:00 AM63 °FOvercast.9 mph68%30.21 "HgN/A
9:00 AM63 °FOvercast.10 mph68%30.21 "HgN/A
Weather by CustomWeather, © 2014

See weather overviewHow to use our weather pages